Location: Costa Mesa
(33.6411°N, 117.9187°W)
Time: 22:57:45
(UTC+00:00)

COSMO-SKYMED 1 - Pass Details

Date: 10 September 2024
Orbit: 621 x 623 km, 97.9° (Epoch: 09 October)

Event Time Altitude Azimuth Distance (km) Brightness Sun altitude
Rises 12:53:28 0° 157° (SSE) 2,891 6.2 -8.8°
Reaches altitude 10° 12:55:41 10° 153° (SSE) 1,988 5.4 -8.3°
Maximum altitude 12:59:55 56° 75° (ENE) 740 3.4 -7.5°
Drops below altitude 10° 13:04:10 10° 357° (N) 2,000 5.3 -6.6°
Sets 13:06:24 0° 354° (N) 2,910 6.1 -6.1°
